{"data":{"norad_id":57154,"epoch":"2026-05-25T03:25:56.279136Z","epoch_age_seconds":72905,"freshness":"FRESH","line1":"1 57154U 23090BF  26145.14301249  .00001927  00000+0  79560-4 0  9997","line2":"2 57154  43.0018 191.7578 0001186 272.6628  87.4088 15.27570288162231","mean_motion":15.27570288,"eccentricity":0.0001186,"inclination_deg":43.0018,"raan_deg":191.7578,"arg_perigee_deg":272.6628,"mean_anomaly_deg":87.4088,"bstar":7.956e-5,"rev_number":16223,"period_min":94.267348043627,"perigee_km":482.26443729556,"apogee_km":483.89191753565,"semimajor_km":6861.2151774156,"source":"CELESTRAK","updated_at":"2026-05-25T13:38:18.250748Z"}}